• In Belgium
  • List of Countries
  • For 7 days
  • Water Temperature
  • Satellite Maps
  • Weather Map
  • Weather Widgets
  • user-avatar
    Login

    Hourly Weather Townsville

    Today, 21 September, Thursday

    Time Temperature Precipitation Wind Pressure Humidity
    00:00 +23°C° 0 mm 2 mps 755 mmHg 93%
    01:00 +23°C° 0 mm 2 mps 755 mmHg 94%
    02:00 +21°C° 0 mm 2 mps 755 mmHg 95%
    03:00 +21°C° 0 mm 2 mps 755 mmHg 96%
    04:00 +21°C° 0 mm 1 mps 755 mmHg 97%
    05:00 +22°C° 0 mm 1 mps 755 mmHg 95%
    06:00 +22°C° 0 mm 1 mps 755 mmHg 93%
    07:00 +22°C° 0 mm 1 mps 755 mmHg 90%
    08:00 +25°C° 0 mm 1 mps 755 mmHg 75%
    09:00 +27°C° 0 mm 2 mps 756 mmHg 59%
    10:00 +30°C° 0 mm 2 mps 756 mmHg 46%
    11:00 +31°C° 0 mm 2 mps 755 mmHg 42%
    12:00 +32°C° 0 mm 2 mps 755 mmHg 38%
    13:00 +34°C° 0 mm 3 mps 754 mmHg 34%
    14:00 +33°C° 0 mm 3 mps 754 mmHg 36%
    15:00 +31°C° 0 mm 3 mps 754 mmHg 39%
    16:00 +30°C° 0 mm 3 mps 753 mmHg 42%
    17:00 +28°C° 0 mm 3 mps 754 mmHg 55%
    18:00 +26°C° 0 mm 3 mps 754 mmHg 68%
    19:00 +24°C° 0 mm 2 mps 754 mmHg 81%
    20:00 +22°C° 0 mm 3 mps 755 mmHg 84%
    21:00 +22°C° 0 mm 3 mps 755 mmHg 86%
    22:00 +22°C° 0 mm 3 mps 756 mmHg 89%
    23:00 +22°C° 0 mm 3 mps 755 mmHg 90%

    Tomorrow, 22 September, Friday

    Time Temperature Precipitation Wind Pressure Humidity
    00:00 +22°C° 0 mm 3 mps 755 mmHg 91%
    01:00 +22°C° 0 mm 4 mps 755 mmHg 92%
    02:00 +22°C° 0 mm 3 mps 755 mmHg 92%
    03:00 +22°C° 0 mm 3 mps 755 mmHg 93%
    04:00 +22°C° 0 mm 3 mps 755 mmHg 93%
    05:00 +22°C° 0 mm 3 mps 755 mmHg 92%
    06:00 +23°C° 0 mm 2 mps 756 mmHg 91%
    07:00 +24°C° 0 mm 2 mps 756 mmHg 90%
    08:00 +25°C° 0 mm 3 mps 756 mmHg 80%
    09:00 +27°C° 0 mm 3 mps 756 mmHg 69%
    10:00 +29°C° 0 mm 3 mps 756 mmHg 59%
    11:00 +30°C° 0 mm 3 mps 756 mmHg 55%
    12:00 +31°C° 0 mm 3 mps 755 mmHg 51%
    13:00 +33°C° 0 mm 3 mps 754 mmHg 47%
    14:00 +31°C° 0 mm 3 mps 754 mmHg 50%
    15:00 +32°C° 0 mm 4 mps 754 mmHg 53%
    16:00 +30°C° 0 mm 4 mps 753 mmHg 56%
    17:00 +28°C° 0 mm 4 mps 754 mmHg 66%
    18:00 +26°C° 0 mm 3 mps 754 mmHg 77%
    19:00 +25°C° 0 mm 3 mps 755 mmHg 87%
    20:00 +24°C° 0 mm 3 mps 755 mmHg 88%
    21:00 +24°C° 0 mm 3 mps 756 mmHg 89%
    22:00 +24°C° 0 mm 3 mps 756 mmHg 90%
    23:00 +22°C° 0 mm 3 mps 756 mmHg 91%

    Day after tomorrow, 23 September, Saturday

    Time Temperature Precipitation Wind Pressure Humidity
    00:00 +22°C° 0 mm 3 mps 756 mmHg 92%
    01:00 +22°C° 0 mm 3 mps 755 mmHg 93%
    02:00 +22°C° 0 mm 3 mps 755 mmHg 93%
    03:00 +22°C° 0 mm 3 mps 755 mmHg 94%
    04:00 +22°C° 0 mm 3 mps 755 mmHg 94%
    05:00 +23°C° 0 mm 2 mps 755 mmHg 93%
    06:00 +23°C° 0 mm 2 mps 756 mmHg 91%
    07:00 +24°C° 0 mm 2 mps 756 mmHg 90%
    08:00 +26°C° 0 mm 3 mps 756 mmHg 80%
    09:00 +27°C° 0 mm 3 mps 756 mmHg 70%
    10:00 +29°C° 0 mm 3 mps 756 mmHg 60%
    11:00 +30°C° 0 mm 3 mps 756 mmHg 55%
    12:00 +31°C° 0 mm 3 mps 755 mmHg 50%
    13:00 +33°C° 0 mm 4 mps 754 mmHg 46%
    14:00 +32°C° 0 mm 4 mps 754 mmHg 48%
    15:00 +30°C° 0 mm 4 mps 754 mmHg 50%
    16:00 +30°C° 0 mm 3 mps 753 mmHg 53%
    17:00 +28°C° 0 mm 3 mps 754 mmHg 64%
    18:00 +26°C° 0 mm 3 mps 754 mmHg 75%
    19:00 +24°C° 0 mm 2 mps 755 mmHg 86%
    20:00 +23°C° 0 mm 2 mps 755 mmHg 89%
    21:00 +23°C° 0 mm 2 mps 756 mmHg 91%
    22:00 +21°C° 0 mm 2 mps 756 mmHg 94%
    23:00 +21°C° 0 mm 2 mps 756 mmHg 94%

    24 September, Sunday

    Time Temperature Precipitation Wind Pressure Humidity
    00:00 +21°C° 0 mm 2 mps 755 mmHg 94%
    01:00 +21°C° 0 mm 2 mps 755 mmHg 94%
    02:00 +21°C° 0 mm 2 mps 755 mmHg 95%
    03:00 +21°C° 0 mm 2 mps 755 mmHg 95%
    04:00 +21°C° 0 mm 2 mps 754 mmHg 95%
    05:00 +21°C° 0 mm 2 mps 755 mmHg 93%
    06:00 +21°C° 0 mm 2 mps 755 mmHg 91%
    07:00 +23°C° 0 mm 2 mps 756 mmHg 89%
    08:00 +25°C° 0 mm 3 mps 756 mmHg 75%
    09:00 +27°C° 0 mm 3 mps 756 mmHg 62%
    10:00 +29°C° 0 mm 3 mps 756 mmHg 48%
    11:00 +30°C° 0 mm 4 mps 755 mmHg 44%
    12:00 +32°C° 0 mm 4 mps 755 mmHg 39%
    13:00 +33°C° 0 mm 4 mps 754 mmHg 34%
    14:00 +32°C° 0 mm 4 mps 754 mmHg 36%
    15:00 +30°C° 0 mm 4 mps 753 mmHg 38%
    16:00 +30°C° 0 mm 3 mps 753 mmHg 39%
    17:00 +27°C° 0 mm 3 mps 753 mmHg 51%
    18:00 +25°C° 0 mm 2 mps 754 mmHg 63%
    19:00 +23°C° 0 mm 2 mps 754 mmHg 74%
    20:00 +21°C° 0 mm 2 mps 755 mmHg 78%
    21:00 +22°C° 0 mm 1 mps 755 mmHg 82%
    22:00 +21°C° 0 mm 1 mps 755 mmHg 86%
    23:00 +21°C° 0 mm 1 mps 755 mmHg 88%

    25 September, Monday

    Time Temperature Precipitation Wind Pressure Humidity
    00:00 +21°C° 0 mm 1 mps 754 mmHg 90%
    01:00 +20°C° 0 mm 1 mps 754 mmHg 92%
    02:00 +20°C° 0 mm 1 mps 754 mmHg 92%
    03:00 +20°C° 0 mm 1 mps 754 mmHg 93%
    04:00 +20°C° 0 mm 1 mps 754 mmHg 94%
    05:00 +20°C° 0 mm 2 mps 754 mmHg 92%
    06:00 +20°C° 0 mm 2 mps 755 mmHg 89%
    07:00 +21°C° 0 mm 2 mps 755 mmHg 87%
    08:00 +24°C° 0 mm 3 mps 755 mmHg 75%
    09:00 +27°C° 0 mm 3 mps 755 mmHg 63%
    10:00 +29°C° 0 mm 4 mps 755 mmHg 51%
    11:00 +30°C° 0 mm 4 mps 755 mmHg 47%
    12:00 +32°C° 0 mm 4 mps 754 mmHg 43%
    13:00 +32°C° 0 mm 4 mps 754 mmHg 40%
    14:00 +32°C° 0 mm 4 mps 753 mmHg 42%
    15:00 +30°C° 0 mm 4 mps 753 mmHg 44%
    16:00 +29°C° 0 mm 3 mps 753 mmHg 47%
    17:00 +27°C° 0 mm 3 mps 753 mmHg 58%
    18:00 +25°C° 0 mm 3 mps 754 mmHg 69%
    19:00 +23°C° 0 mm 2 mps 754 mmHg 80%
    20:00 +21°C° 0 mm 2 mps 754 mmHg 84%
    21:00 +21°C° 0 mm 2 mps 755 mmHg 87%
    22:00 +21°C° 0 mm 1 mps 755 mmHg 91%
    23:00 +20°C° 0 mm 2 mps 755 mmHg 92%

    26 September, Tuesday

    Time Temperature Precipitation Wind Pressure Humidity
    00:00 +20°C° 0 mm 2 mps 754 mmHg 93%
    01:00 +20°C° 0 mm 2 mps 754 mmHg 94%
    02:00 +20°C° 0 mm 2 mps 754 mmHg 94%
    03:00 +20°C° 0 mm 2 mps 754 mmHg 93%
    04:00 +20°C° 0 mm 2 mps 754 mmHg 93%
    05:00 +20°C° 0 mm 2 mps 754 mmHg 89%
    06:00 +21°C° 0 mm 2 mps 755 mmHg 85%
    07:00 +23°C° 0 mm 2 mps 755 mmHg 82%
    08:00 +25°C° 0 mm 2 mps 755 mmHg 71%
    09:00 +27°C° 0 mm 3 mps 755 mmHg 60%
    10:00 +29°C° 0 mm 3 mps 755 mmHg 49%
    11:00 +30°C° 0 mm 3 mps 755 mmHg 46%
    12:00 +31°C° 0 mm 3 mps 754 mmHg 43%
    13:00 +33°C° 0 mm 3 mps 753 mmHg 40%
    14:00 +31°C° 0 mm 3 mps 753 mmHg 42%
    15:00 +30°C° 0 mm 3 mps 753 mmHg 44%
    16:00 +30°C° 0 mm 3 mps 752 mmHg 46%
    17:00 +28°C° 0 mm 3 mps 753 mmHg 56%
    18:00 +25°C° 0 mm 2 mps 753 mmHg 66%
    19:00 +23°C° 0 mm 2 mps 754 mmHg 77%
    20:00 +23°C° 0 mm 2 mps 754 mmHg 80%
    21:00 +21°C° 0 mm 2 mps 754 mmHg 83%
    22:00 +21°C° 0 mm 2 mps 755 mmHg 87%
    23:00 +20°C° 0 mm 2 mps 755 mmHg 89%
    Show more